Darstellungsparameter: Aktuell verwendete Einstellungen:
Skalierung der Graphiken ... ?
xyx+y,   Skalierungsfaktor:      Skalierung: Modus: x, Faktor: 1
Darstellungszeitraum ... ?
Vom - - bis: - -   Zeitraum: 11.05.2010 - 15.05.2010
Min/Max/Avg-Anzeige ... ?
Zeige MMA aktuell
Zeige MMA Monat
Zeige MMA alles
Zeige --A aktuell
Zeige --A Monat
Zeige --A alles
Keine MMA-Anzeige
MMA:
Average (ber die Originaldaten)
MMA-Basis: 14.04.2020 - 16.05.2020
Quicknavigation für Darstellung... ?
Tage:      1T, 2T, 3T, 5T -1T -2T -3T -5T +1T +2T +3T +5T
Wochen: 1W, 2W, 3W -1W -2W -3W +1W +2W +3W
Monate: 1M, 3M, 6M -1M -3M -6M +1M +3M +6M
Jahre:    1J, 3J, 5J, 10J -1J -3J -5J -10J +1J +3J +5J +10J
Nutze für die Darstellung ... ?
Originaldaten oder Mittelwerte auf ...
Stundenbasis Tagesbasis Wochenbasis
Monatsbasis Jahresbasis      Datenbasis: Original-Daten
Darstellen als:
Statistik (Auto) Statistik J:M      Darstellung:
Zur Graphik,    zurück zur Übersicht aller Sensoren.
 
Tabellarische Datenbersicht: ?
 
Sensor: Nr:Datum:Temp:Abs-Feuchte:Windchill:Wind:
Aussen-T/F 1 11-05-2010 00:03:05 11 C 5.71 g/m*3 11 C 0 km/h
2 11-05-2010 00:15:05 11.1 C 5.74 g/m*3 11.1 C 0 km/h
3 11-05-2010 00:27:05 10.7 C 5.7 g/m*3 10.7 C 0 km/h
4 11-05-2010 00:39:05 10.8 C 5.83 g/m*3 10.8 C 0 km/h
5 11-05-2010 00:51:05 10.8 C 5.83 g/m*3 10.8 C 0 km/h
6 11-05-2010 01:03:05 10.4 C 5.88 g/m*3 10.4 C 0 km/h
7 11-05-2010 01:15:05 10.5 C 5.82 g/m*3 10.5 C 0 km/h
8 11-05-2010 01:27:05 10.5 C 5.92 g/m*3 10.5 C 0 km/h
9 11-05-2010 01:39:05 10.4 C 5.98 g/m*3 10.4 C 0 km/h
10 11-05-2010 01:51:05 10.3 C 6.03 g/m*3 10.3 C 0 km/h
11 11-05-2010 02:03:05 10.1 C 5.96 g/m*3 10.1 C 0 km/h
12 11-05-2010 02:15:05 10 C 6.01 g/m*3 10 C 0 km/h
13 11-05-2010 02:27:05 10.1 C 6.05 g/m*3 10.1 C 0 km/h
14 11-05-2010 02:39:05 10.1 C 6.05 g/m*3 10.1 C 0 km/h
15 11-05-2010 02:51:05 10.2 C 6.09 g/m*3 10.2 C 0 km/h
16 11-05-2010 03:03:05 10 C 6.11 g/m*3 10 C 0 km/h
17 11-05-2010 03:15:05 9.7 C 5.99 g/m*3 9.7 C 0 km/h
18 11-05-2010 03:27:05 9.9 C 6.07 g/m*3 9.9 C 0 km/h
19 11-05-2010 03:39:06 9.7 C 6.27 g/m*3 9.7 C 0 km/h
20 11-05-2010 03:51:06 9.6 C 6.32 g/m*3 9.6 C 0 km/h
21 11-05-2010 04:03:06 9.7 C 6.45 g/m*3 9.7 C 0 km/h
22 11-05-2010 04:15:06 9.5 C 6.1 g/m*3 9.5 C 0 km/h
23 11-05-2010 04:27:06 9.4 C 6.06 g/m*3 9.4 C 0 km/h
24 11-05-2010 04:39:06 9.3 C 6.02 g/m*3 9.3 C 0 km/h
25 11-05-2010 04:51:06 9.4 C 6.15 g/m*3 9.4 C 0 km/h
Sensor: Nr:Datum:Temp:Abs-Feuchte:Windchill:Wind:
Aussen-T/F 26 11-05-2010 05:03:06 9.4 C 6.15 g/m*3 9.4 C 0 km/h
27 11-05-2010 05:15:06 9.3 C 6.11 g/m*3 9.3 C 0 km/h
28 11-05-2010 05:27:06 9.5 C 6.19 g/m*3 9.5 C 0 km/h
29 11-05-2010 05:39:06 9.4 C 6.15 g/m*3 9.4 C 0 km/h
30 11-05-2010 05:51:06 9.3 C 6.2 g/m*3 9.3 C 0 km/h
31 11-05-2010 06:03:06 9.4 C 6.24 g/m*3 9.4 C 0 km/h
32 11-05-2010 06:15:06 9.3 C 6.11 g/m*3 9.3 C 0 km/h
33 11-05-2010 06:27:06 9.3 C 6.2 g/m*3 9.3 C 0 km/h
34 11-05-2010 06:39:06 9.1 C 6.12 g/m*3 9.1 C 0 km/h
35 11-05-2010 06:51:02 9.1 C 6.12 g/m*3 9.1 C 0 km/h
36 11-05-2010 07:03:01 9.3 C 6.29 g/m*3 9.3 C 0 km/h
37 11-05-2010 07:15:02 9.5 C 6.37 g/m*3 9.5 C 0 km/h
38 11-05-2010 07:27:02 9.6 C 6.32 g/m*3 9.6 C 0 km/h
39 11-05-2010 07:39:02 9.7 C 6.27 g/m*3 9.7 C 0 km/h
40 11-05-2010 07:51:01 9.9 C 6.35 g/m*3 9.9 C 0 km/h
41 11-05-2010 08:03:02 10.1 C 6.24 g/m*3 10.1 C 0 km/h
42 11-05-2010 08:15:01 10.5 C 6.3 g/m*3 10.5 C 0 km/h
43 11-05-2010 08:27:01 10.7 C 6.19 g/m*3 10.7 C 0 km/h
44 11-05-2010 08:39:01 11.2 C 6.28 g/m*3 11.2 C 0 km/h
45 11-05-2010 08:51:01 12 C 6.29 g/m*3 12 C 0 km/h
46 11-05-2010 09:03:02 11.7 C 6.07 g/m*3 11.7 C 0 km/h
47 11-05-2010 09:15:01 11.7 C 6.07 g/m*3 11.7 C 0 km/h
48 11-05-2010 09:27:01 11.9 C 6.14 g/m*3 11.9 C 0 km/h
49 11-05-2010 09:39:02 12.8 C 6.05 g/m*3 12.8 C 0 km/h
50 11-05-2010 09:51:01 12.7 C 5.79 g/m*3 12.7 C 0 km/h
Sensor: Nr:Datum:Temp:Abs-Feuchte:Windchill:Wind:
Aussen-T/F 51 11-05-2010 10:03:02 12.8 C 6.16 g/m*3 12.8 C 0 km/h
52 11-05-2010 10:15:02 13 C 6.01 g/m*3 13 C 0 km/h
53 11-05-2010 10:27:02 13 C 5.9 g/m*3 13 C 0 km/h
54 11-05-2010 10:39:01 12.3 C 5.97 g/m*3 12.3 C 0 km/h
55 11-05-2010 10:51:01 11.8 C 6.21 g/m*3 11.8 C 0 km/h
56 11-05-2010 11:03:01 12 C 6.07 g/m*3 12 C 0 km/h
57 11-05-2010 11:15:02 12 C 6.07 g/m*3 12 C 0 km/h
58 11-05-2010 11:27:02 12 C 6.18 g/m*3 12 C 0 km/h
59 11-05-2010 11:39:02 12.5 C 6.38 g/m*3 12.5 C 0 km/h
60 11-05-2010 11:51:02 14.1 C 6.19 g/m*3 14.1 C 0 km/h
61 11-05-2010 12:03:02 14.1 C 5.95 g/m*3 14.1 C 0 km/h
62 11-05-2010 12:15:02 13.7 C 6.28 g/m*3 13.7 C 0 km/h
63 11-05-2010 12:27:02 14.8 C 6.33 g/m*3 14.8 C 0 km/h
64 11-05-2010 12:39:01 14.1 C 5.95 g/m*3 14.1 C 0 km/h
65 11-05-2010 12:51:02 14.3 C 6.27 g/m*3 14.3 C 0 km/h
66 11-05-2010 13:03:01 13.4 C 6.16 g/m*3 13.4 C 0 km/h
67 11-05-2010 13:15:01 13.7 C 6.39 g/m*3 13.7 C 0 km/h
68 11-05-2010 13:27:01 14.2 C 6.23 g/m*3 14.2 C 0 km/h
69 11-05-2010 13:39:01 14.1 C 6.19 g/m*3 14.1 C 0 km/h
70 11-05-2010 13:51:02 13.3 C 6.35 g/m*3 13.3 C 0 km/h
71 11-05-2010 14:03:01 14.1 C 6.43 g/m*3 14.1 C 0 km/h
72 11-05-2010 14:15:01 14 C 6.27 g/m*3 14 C 0 km/h
73 11-05-2010 14:27:01 14.1 C 6.43 g/m*3 14.1 C 0 km/h
74 11-05-2010 14:39:02 14 C 6.39 g/m*3 14 C 0 km/h
75 11-05-2010 14:51:02 14 C 6.51 g/m*3 14 C 0 km/h
Sensor: Nr:Datum:Temp:Abs-Feuchte:Windchill:Wind:
Aussen-T/F 76 11-05-2010 15:03:02 14.4 C 6.55 g/m*3 14.4 C 0 km/h
77 11-05-2010 15:15:02 14.1 C 6.31 g/m*3 14.1 C 0 km/h
78 11-05-2010 15:27:02 14.7 C 6.55 g/m*3 14.7 C 0 km/h
79 11-05-2010 15:39:02 14.5 C 6.34 g/m*3 14.5 C 0 km/h
80 11-05-2010 15:51:02 14.3 C 6.39 g/m*3 14.3 C 0 km/h
81 11-05-2010 16:03:03 14.3 C 6.51 g/m*3 14.3 C 0 km/h
82 11-05-2010 16:15:02 14.8 C 6.71 g/m*3 14.8 C 0 km/h
83 11-05-2010 16:27:02 15.6 C 6.65 g/m*3 15.6 C 0 km/h
84 11-05-2010 16:39:03 15.9 C 6.5 g/m*3 15.9 C 0 km/h
85 11-05-2010 16:51:01 15.6 C 6.52 g/m*3 15.6 C 0 km/h
86 11-05-2010 17:03:02 14.9 C 6.75 g/m*3 14.9 C 0 km/h
87 11-05-2010 17:15:01 15.1 C 6.58 g/m*3 15.1 C 0 km/h
88 11-05-2010 17:27:01 14.7 C 6.8 g/m*3 14.7 C 0 km/h
89 11-05-2010 17:39:02 14.8 C 6.71 g/m*3 14.8 C 0 km/h
90 11-05-2010 17:51:01 14.7 C 6.8 g/m*3 14.7 C 0 km/h
91 11-05-2010 18:03:02 14.5 C 6.96 g/m*3 14.5 C 0 km/h
92 11-05-2010 18:15:02 13.9 C 7.07 g/m*3 13.9 C 0 km/h
93 11-05-2010 18:27:02 12.5 C 7.48 g/m*3 12.5 C 0 km/h
94 11-05-2010 18:39:02 11.9 C 8.05 g/m*3 11.9 C 0 km/h
95 11-05-2010 18:51:01 11.6 C 8.21 g/m*3 11.6 C 0 km/h
96 11-05-2010 19:03:02 11.3 C 8.16 g/m*3 11.3 C 0 km/h
97 11-05-2010 19:15:02 11.1 C 8.36 g/m*3 11.1 C 0 km/h
98 11-05-2010 19:27:02 10.9 C 8.36 g/m*3 10.9 C 0 km/h
99 11-05-2010 19:39:02 10.8 C 8.3 g/m*3 10.8 C 0 km/h
100 11-05-2010 19:51:01 10.6 C 8.39 g/m*3 10.6 C 0 km/h
Sensor: Nr:Datum:Temp:Abs-Feuchte:Windchill:Wind:
Aussen-T/F 101 11-05-2010 20:03:02 10.5 C 8.44 g/m*3 10.5 C 0 km/h
102 11-05-2010 20:15:02 10.2 C 8.37 g/m*3 10.2 C 0 km/h
103 11-05-2010 20:27:02 10.1 C 8.42 g/m*3 10.1 C 0 km/h
104 11-05-2010 20:39:02 10 C 8.46 g/m*3 10 C 0 km/h
105 11-05-2010 20:51:02 9.8 C 8.54 g/m*3 9.8 C 0 km/h
106 11-05-2010 21:03:01 9.8 C 8.54 g/m*3 9.8 C 0 km/h
107 11-05-2010 21:15:02 9.9 C 8.59 g/m*3 9.9 C 0 km/h
108 11-05-2010 21:27:03 10 C 8.64 g/m*3 10 C 0 km/h
109 11-05-2010 21:39:01 9.8 C 8.63 g/m*3 9.8 C 0 km/h
110 11-05-2010 21:51:02 9.8 C 8.63 g/m*3 9.8 C 0 km/h
111 11-05-2010 22:03:02 9.7 C 8.57 g/m*3 9.7 C 0 km/h
112 11-05-2010 22:15:01 9.6 C 8.52 g/m*3 9.6 C 0 km/h
113 11-05-2010 22:27:01 9.8 C 8.72 g/m*3 9.8 C 0 km/h
114 11-05-2010 22:40:03 9.6 C 8.61 g/m*3 9.6 C 0 km/h
115 11-05-2010 22:52:03 9.7 C 8.67 g/m*3 9.7 C 0 km/h
116 11-05-2010 23:04:03 9.8 C 8.72 g/m*3 9.8 C 0 km/h
117 11-05-2010 23:16:03 9.8 C 8.72 g/m*3 9.8 C 0 km/h
118 11-05-2010 23:28:03 9.8 C 8.72 g/m*3 9.8 C 0 km/h
119 11-05-2010 23:40:03 9.9 C 8.78 g/m*3 9.9 C 0 km/h
120 11-05-2010 23:52:03 9.7 C 8.67 g/m*3 9.7 C 0 km/h
121 12-05-2010 00:04:03 9.7 C 8.67 g/m*3 9.7 C 0 km/h
122 12-05-2010 00:16:03 9.6 C 8.61 g/m*3 9.6 C 0 km/h
123 12-05-2010 00:28:03 9.1 C 8.34 g/m*3 9.1 C 0 km/h
124 12-05-2010 00:40:03 9.1 C 8.34 g/m*3 9.1 C 0 km/h
125 12-05-2010 00:52:03 9.1 C 8.34 g/m*3 9.1 C 0 km/h
Sensor: Nr:Datum:Temp:Abs-Feuchte:Windchill:Wind:
Aussen-T/F 126 12-05-2010 01:04:03 9.1 C 8.34 g/m*3 9.1 C 0 km/h
127 12-05-2010 01:16:03 8.8 C 8.27 g/m*3 8.8 C 0 km/h
128 12-05-2010 01:28:04 8.5 C 8.03 g/m*3 8.5 C 0 km/h
129 12-05-2010 01:40:04 8.4 C 7.97 g/m*3 8.4 C 0 km/h
130 12-05-2010 01:52:04 7.8 C 7.75 g/m*3 7.8 C 0 km/h
131 12-05-2010 02:04:04 7.5 C 7.52 g/m*3 7.5 C 0 km/h
132 12-05-2010 02:16:04 7.8 C 7.75 g/m*3 7.8 C 0 km/h
133 12-05-2010 02:28:04 7.9 C 7.8 g/m*3 7.9 C 0 km/h
134 12-05-2010 02:40:04 7.9 C 7.8 g/m*3 7.9 C 0 km/h
135 12-05-2010 02:52:04 7.5 C 7.6 g/m*3 7.5 C 0 km/h
136 12-05-2010 03:04:04 7.3 C 7.43 g/m*3 7.3 C 0 km/h
137 12-05-2010 03:16:04 7.2 C 7.38 g/m*3 7.2 C 0 km/h
138 12-05-2010 03:28:04 7.1 C 7.33 g/m*3 7.1 C 0 km/h
139 12-05-2010 03:40:04 7 C 7.28 g/m*3 7 C 0 km/h
140 12-05-2010 03:52:04 7 C 7.21 g/m*3 7 C 0 km/h
141 12-05-2010 04:04:04 6.9 C 7.16 g/m*3 6.9 C 0 km/h
142 12-05-2010 04:16:04 6.9 C 7.08 g/m*3 6.9 C 0 km/h
143 12-05-2010 04:28:04 6.9 C 7.01 g/m*3 6.9 C 0 km/h
144 12-05-2010 04:40:04 6.9 C 6.93 g/m*3 6.9 C 0 km/h
145 12-05-2010 04:52:04 6.8 C 6.81 g/m*3 6.8 C 0 km/h
146 12-05-2010 05:04:04 6.8 C 6.73 g/m*3 6.8 C 0 km/h
147 12-05-2010 05:16:04 6.8 C 6.65 g/m*3 6.8 C 0 km/h
148 12-05-2010 05:28:04 6.8 C 6.65 g/m*3 6.8 C 0 km/h
149 12-05-2010 05:40:05 6.8 C 6.65 g/m*3 6.8 C 0 km/h
150 12-05-2010 05:52:05 6.8 C 6.65 g/m*3 6.8 C 0 km/h
Sensor: Nr:Datum:Temp:Abs-Feuchte:Windchill:Wind:
Aussen-T/F 151 12-05-2010 06:04:05 6.7 C 6.61 g/m*3 6.7 C 0 km/h
152 12-05-2010 06:16:05 6.8 C 6.58 g/m*3 6.8 C 0 km/h
153 12-05-2010 06:28:05 6.8 C 6.5 g/m*3 6.8 C 0 km/h
154 12-05-2010 06:40:05 6.8 C 6.58 g/m*3 6.8 C 0 km/h
155 12-05-2010 06:52:05 6.8 C 6.58 g/m*3 6.8 C 0 km/h
156 12-05-2010 07:04:03 6.9 C 6.54 g/m*3 6.9 C 0 km/h
157 12-05-2010 07:16:03 7 C 6.59 g/m*3 7 C 0 km/h
158 12-05-2010 07:28:03 7.1 C 6.71 g/m*3 7.1 C 0 km/h
159 12-05-2010 07:40:03 7.2 C 6.67 g/m*3 7.2 C 0 km/h
160 12-05-2010 07:52:02 7.2 C 6.59 g/m*3 7.2 C 0 km/h
161 12-05-2010 08:04:02 7.3 C 6.56 g/m*3 7.3 C 0 km/h
162 12-05-2010 08:16:02 7.6 C 6.69 g/m*3 7.6 C 0 km/h
163 12-05-2010 08:28:02 7.7 C 6.57 g/m*3 7.7 C 0 km/h
164 12-05-2010 08:40:02 7.8 C 6.45 g/m*3 7.8 C 0 km/h
165 12-05-2010 08:52:01 7.8 C 6.45 g/m*3 7.8 C 0 km/h
166 12-05-2010 09:04:02 8 C 6.37 g/m*3 8 C 0 km/h
167 12-05-2010 09:16:01 8.3 C 6.41 g/m*3 8.3 C 0 km/h
168 12-05-2010 09:28:01 8.4 C 6.19 g/m*3 8.4 C 0 km/h
169 12-05-2010 09:40:01 8.3 C 6.07 g/m*3 8.3 C 0 km/h
170 12-05-2010 09:52:01 8.4 C 6.11 g/m*3 8.4 C 0 km/h
171 12-05-2010 10:04:02 8.4 C 6.02 g/m*3 8.4 C 0 km/h
172 12-05-2010 10:16:01 8.6 C 6.1 g/m*3 8.6 C 0 km/h
173 12-05-2010 10:28:01 8.6 C 6.02 g/m*3 8.6 C 0 km/h
174 12-05-2010 10:40:01 8.7 C 5.97 g/m*3 8.7 C 0 km/h
175 12-05-2010 10:52:01 8.7 C 5.79 g/m*3 8.7 C 0 km/h
Sensor: Nr:Datum:Temp:Abs-Feuchte:Windchill:Wind:
Aussen-T/F 176 12-05-2010 11:04:01 8.7 C 5.79 g/m*3 8.7 C 0 km/h
177 12-05-2010 11:16:02 8.9 C 5.87 g/m*3 8.9 C 0 km/h
178 12-05-2010 11:28:02 8.9 C 5.61 g/m*3 8.9 C 0 km/h
179 12-05-2010 11:40:01 9.3 C 5.57 g/m*3 9.3 C 0 km/h
180 12-05-2010 11:52:01 10.1 C 5.67 g/m*3 10.1 C 0 km/h
181 12-05-2010 12:04:01 10 C 5.54 g/m*3 10 C 0 km/h
182 12-05-2010 12:16:02 9.7 C 5.35 g/m*3 9.7 C 0 km/h
183 12-05-2010 12:28:02 9.9 C 5.51 g/m*3 9.9 C 0 km/h
184 12-05-2010 12:40:01 10.5 C 5.33 g/m*3 10.5 C 0 km/h
185 12-05-2010 12:52:03 10.2 C 5.42 g/m*3 10.2 C 0 km/h
186 12-05-2010 13:04:02 10.5 C 5.43 g/m*3 10.5 C 0 km/h
187 12-05-2010 13:16:02 11.1 C 5.34 g/m*3 11.1 C 0 km/h
188 12-05-2010 13:28:02 10.7 C 5.3 g/m*3 10.7 C 0 km/h
189 12-05-2010 13:40:02 10.4 C 5.2 g/m*3 10.4 C 0 km/h
190 12-05-2010 13:52:02 10.7 C 5.21 g/m*3 10.7 C 0 km/h
191 12-05-2010 14:04:02 10.2 C 5.23 g/m*3 10.2 C 0 km/h
192 12-05-2010 14:16:02 10.2 C 5.23 g/m*3 10.2 C 0 km/h
193 12-05-2010 14:28:02 10.6 C 5.17 g/m*3 10.6 C 0 km/h
194 12-05-2010 14:40:01 10.9 C 5.17 g/m*3 10.9 C 0 km/h
195 12-05-2010 14:52:02 10.7 C 4.81 g/m*3 10.7 C 0 km/h
196 12-05-2010 15:04:01 11.1 C 5.14 g/m*3 11.1 C 0 km/h
197 12-05-2010 15:16:02 10.8 C 4.94 g/m*3 10.8 C 0 km/h
198 12-05-2010 15:28:02 10.8 C 4.84 g/m*3 10.8 C 0 km/h
199 12-05-2010 15:40:02 10.8 C 5.04 g/m*3 10.8 C 0 km/h
200 12-05-2010 15:52:02 10.7 C 5.11 g/m*3 10.7 C 0 km/h
Sensor: Nr:Datum:Temp:Abs-Feuchte:Windchill:Wind:
Aussen-T/F 201 12-05-2010 16:04:02 10.8 C 5.24 g/m*3 10.8 C 0 km/h
202 12-05-2010 16:16:02 10.9 C 5.17 g/m*3 10.9 C 0 km/h
203 12-05-2010 16:28:02 10.7 C 5.3 g/m*3 10.7 C 0 km/h
204 12-05-2010 16:40:02 10.3 C 5.17 g/m*3 10.3 C 0 km/h
205 12-05-2010 16:52:01 9.9 C 5.32 g/m*3 9.9 C 0 km/h
206 12-05-2010 17:04:02 9.6 C 5.22 g/m*3 9.6 C 0 km/h
207 12-05-2010 17:16:01 9.7 C 5.35 g/m*3 9.7 C 0 km/h
208 12-05-2010 17:28:01 9.9 C 5.32 g/m*3 9.9 C 0 km/h
209 12-05-2010 17:40:02 9.9 C 5.32 g/m*3 9.9 C 0 km/h
210 12-05-2010 17:52:02 9.6 C 5.22 g/m*3 9.6 C 0 km/h
211 12-05-2010 18:04:02 9.6 C 5.4 g/m*3 9.6 C 0 km/h
212 12-05-2010 18:16:01 9.3 C 5.39 g/m*3 9.3 C 0 km/h
213 12-05-2010 18:28:01 9.1 C 5.41 g/m*3 9.1 C 0 km/h
214 12-05-2010 18:40:02 9.1 C 5.5 g/m*3 9.1 C 0 km/h
215 12-05-2010 18:52:02 9 C 5.55 g/m*3 9 C 0 km/h
216 12-05-2010 19:04:02 9 C 5.64 g/m*3 9 C 0 km/h
217 12-05-2010 19:16:01 8.8 C 5.66 g/m*3 8.8 C 0 km/h
218 12-05-2010 19:28:01 9 C 5.73 g/m*3 9 C 0 km/h
219 12-05-2010 19:40:02 9 C 5.73 g/m*3 9 C 0 km/h
220 12-05-2010 19:52:02 8.7 C 5.71 g/m*3 8.7 C 0 km/h
221 12-05-2010 20:04:02 8.6 C 5.76 g/m*3 8.6 C 0 km/h
222 12-05-2010 20:16:02 8.6 C 5.84 g/m*3 8.6 C 0 km/h
223 12-05-2010 20:28:02 8.6 C 5.84 g/m*3 8.6 C 0 km/h
224 12-05-2010 20:40:02 8.5 C 5.81 g/m*3 8.5 C 0 km/h
225 12-05-2010 20:52:02 8.5 C 5.98 g/m*3 8.5 C 0 km/h
Sensor: Nr:Datum:Temp:Abs-Feuchte:Windchill:Wind:
Aussen-T/F 226 12-05-2010 21:04:02 8.5 C 5.89 g/m*3 8.5 C 0 km/h
227 12-05-2010 21:16:02 8.4 C 5.94 g/m*3 8.4 C 0 km/h
228 12-05-2010 21:28:02 8.5 C 6.06 g/m*3 8.5 C 0 km/h
229 12-05-2010 21:40:01 8.5 C 6.06 g/m*3 8.5 C 0 km/h
230 12-05-2010 21:52:02 8.3 C 6.07 g/m*3 8.3 C 0 km/h
231 12-05-2010 22:04:01 8 C 6.2 g/m*3 8 C 0 km/h
232 12-05-2010 22:17:03 8 C 6.37 g/m*3 8 C 0 km/h
233 12-05-2010 22:29:03 7.6 C 6.36 g/m*3 7.6 C 0 km/h
234 12-05-2010 22:41:03 7.5 C 6.48 g/m*3 7.5 C 0 km/h
235 12-05-2010 22:53:03 7.7 C 6.65 g/m*3 7.7 C 0 km/h
236 12-05-2010 23:05:03 7.8 C 6.69 g/m*3 7.8 C 0 km/h
237 12-05-2010 23:17:03 7.8 C 6.69 g/m*3 7.8 C 0 km/h
238 12-05-2010 23:29:03 7.8 C 6.69 g/m*3 7.8 C 0 km/h
239 12-05-2010 23:41:04 7.9 C 6.74 g/m*3 7.9 C 0 km/h
240 12-05-2010 23:53:04 7.7 C 6.57 g/m*3 7.7 C 0 km/h
241 13-05-2010 00:05:04 7.7 C 6.57 g/m*3 7.7 C 0 km/h
242 13-05-2010 00:17:04 7.6 C 6.53 g/m*3 7.6 C 0 km/h
243 13-05-2010 00:29:04 7.5 C 6.4 g/m*3 7.5 C 0 km/h
244 13-05-2010 00:41:04 7.6 C 6.44 g/m*3 7.6 C 0 km/h
245 13-05-2010 00:53:04 7.5 C 6.4 g/m*3 7.5 C 0 km/h
246 13-05-2010 01:05:04 7.4 C 6.36 g/m*3 7.4 C 0 km/h
247 13-05-2010 01:17:04 7.3 C 6.48 g/m*3 7.3 C 0 km/h
248 13-05-2010 01:29:04 7.3 C 6.48 g/m*3 7.3 C 0 km/h
249 13-05-2010 01:41:04 7.3 C 6.56 g/m*3 7.3 C 0 km/h
250 13-05-2010 01:53:04 7.4 C 6.68 g/m*3 7.4 C 0 km/h
Sensor: Nr:Datum:Temp:Abs-Feuchte:Windchill:Wind:
Aussen-T/F 251 13-05-2010 02:05:04 7.5 C 6.72 g/m*3 7.5 C 0 km/h
252 13-05-2010 02:17:04 7.4 C 6.6 g/m*3 7.4 C 0 km/h
253 13-05-2010 02:29:04 7.4 C 6.52 g/m*3 7.4 C 0 km/h
254 13-05-2010 02:41:04 7.4 C 6.52 g/m*3 7.4 C 0 km/h
255 13-05-2010 02:53:04 7.4 C 6.52 g/m*3 7.4 C 0 km/h
256 13-05-2010 03:05:04 7.4 C 6.52 g/m*3 7.4 C 0 km/h
257 13-05-2010 03:17:04 7.4 C 6.52 g/m*3 7.4 C 0 km/h
258 13-05-2010 03:29:04 7.3 C 6.48 g/m*3 7.3 C 0 km/h
259 13-05-2010 03:41:05 7.3 C 6.56 g/m*3 7.3 C 0 km/h
260 13-05-2010 03:53:05 7.1 C 6.47 g/m*3 7.1 C 0 km/h
261 13-05-2010 04:05:05 6.9 C 6.54 g/m*3 6.9 C 0 km/h
262 13-05-2010 04:17:05 7 C 6.51 g/m*3 7 C 0 km/h
263 13-05-2010 04:29:05 7.1 C 6.63 g/m*3 7.1 C 0 km/h
264 13-05-2010 04:41:05 7.1 C 6.63 g/m*3 7.1 C 0 km/h
265 13-05-2010 04:53:05 6.9 C 6.62 g/m*3 6.9 C 0 km/h
266 13-05-2010 05:05:05 6.9 C 6.7 g/m*3 6.9 C 0 km/h
267 13-05-2010 05:17:05 6.8 C 6.65 g/m*3 6.8 C 0 km/h
268 13-05-2010 05:29:05 6.8 C 6.65 g/m*3 6.8 C 0 km/h
269 13-05-2010 05:41:05 6.7 C 6.61 g/m*3 6.7 C 0 km/h
270 13-05-2010 05:53:05 6.6 C 6.64 g/m*3 6.6 C 0 km/h
271 13-05-2010 06:05:05 6.6 C 6.64 g/m*3 6.6 C 0 km/h
272 13-05-2010 06:17:05 6.7 C 6.69 g/m*3 6.7 C 0 km/h
273 13-05-2010 06:29:05 6.7 C 6.69 g/m*3 6.7 C 0 km/h
274 13-05-2010 06:41:05 6.6 C 6.64 g/m*3 6.6 C 0 km/h
275 13-05-2010 06:53:05 6.6 C 6.64 g/m*3 6.6 C 0 km/h
Sensor: Nr:Datum:Temp:Abs-Feuchte:Windchill:Wind:
Aussen-T/F 276 13-05-2010 07:05:05 6.7 C 6.76 g/m*3 6.7 C 0 km/h
277 13-05-2010 07:17:05 6.7 C 6.76 g/m*3 6.7 C 0 km/h
278 13-05-2010 07:29:05 6.9 C 6.77 g/m*3 6.9 C 0 km/h
279 13-05-2010 07:41:05 6.9 C 6.7 g/m*3 6.9 C 0 km/h
280 13-05-2010 07:53:01 6.8 C 6.5 g/m*3 6.8 C 0 km/h
281 13-05-2010 08:05:01 6.8 C 6.42 g/m*3 6.8 C 0 km/h
282 13-05-2010 08:17:02 6.8 C 6.35 g/m*3 6.8 C 0 km/h
283 13-05-2010 08:29:02 6.9 C 6.31 g/m*3 6.9 C 0 km/h
284 13-05-2010 08:41:01 7 C 6.12 g/m*3 7 C 0 km/h
285 13-05-2010 08:53:02 7.2 C 6.12 g/m*3 7.2 C 0 km/h
286 13-05-2010 09:05:01 7.5 C 6.24 g/m*3 7.5 C 0 km/h
287 13-05-2010 09:17:01 7.8 C 6.2 g/m*3 7.8 C 0 km/h
288 13-05-2010 09:29:01 7.9 C 6 g/m*3 7.9 C 0 km/h
289 13-05-2010 09:41:01 8.2 C 5.86 g/m*3 8.2 C 0 km/h
290 13-05-2010 09:53:02 8.3 C 5.65 g/m*3 8.3 C 0 km/h
291 13-05-2010 10:05:01 8.9 C 5.69 g/m*3 8.9 C 0 km/h
292 13-05-2010 10:17:02 9.1 C 5.41 g/m*3 9.1 C 0 km/h
293 13-05-2010 10:29:02 9.7 C 5.62 g/m*3 9.7 C 0 km/h
294 13-05-2010 10:41:02 9.7 C 5.16 g/m*3 9.7 C 0 km/h
295 13-05-2010 10:53:01 9.9 C 5.23 g/m*3 9.9 C 0 km/h
296 13-05-2010 11:05:02 10.2 C 5.23 g/m*3 10.2 C 0 km/h
297 13-05-2010 11:17:01 10 C 4.98 g/m*3 10 C 0 km/h
298 13-05-2010 11:29:01 10.1 C 4.92 g/m*3 10.1 C 0 km/h
299 13-05-2010 11:41:02 9.5 C 5.01 g/m*3 9.5 C 0 km/h
300 13-05-2010 11:53:02 9.7 C 5.16 g/m*3 9.7 C 0 km/h
Sensor: Nr:Datum:Temp:Abs-Feuchte:Windchill:Wind:
Aussen-T/F 301 13-05-2010 12:05:02 9.7 C 4.89 g/m*3 9.7 C 0 km/h
302 13-05-2010 12:17:01 9.5 C 4.92 g/m*3 9.5 C 0 km/h
303 13-05-2010 12:29:01 10.2 C 4.95 g/m*3 10.2 C 0 km/h
304 13-05-2010 12:41:02 10.1 C 4.63 g/m*3 10.1 C 0 km/h
305 13-05-2010 12:53:02 10.8 C 4.84 g/m*3 10.8 C 0 km/h
306 13-05-2010 13:05:02 11 C 4.8 g/m*3 11 C 0 km/h
307 13-05-2010 13:17:01 10.1 C 4.92 g/m*3 10.1 C 0 km/h
308 13-05-2010 13:29:01 9.3 C 4.94 g/m*3 9.3 C 0 km/h
309 13-05-2010 13:41:02 8.9 C 5.08 g/m*3 8.9 C 0 km/h
310 13-05-2010 13:53:02 9.4 C 5.16 g/m*3 9.4 C 0 km/h
311 13-05-2010 14:05:02 10 C 5.17 g/m*3 10 C 0 km/h
312 13-05-2010 14:17:02 10.5 C 5.14 g/m*3 10.5 C 0 km/h
313 13-05-2010 14:29:02 10.9 C 5.07 g/m*3 10.9 C 0 km/h
314 13-05-2010 14:41:02 10.6 C 4.78 g/m*3 10.6 C 0 km/h
315 13-05-2010 14:53:01 11 C 4.9 g/m*3 11 C 0 km/h
316 13-05-2010 15:05:02 11 C 4.8 g/m*3 11 C 0 km/h
317 13-05-2010 15:17:02 10.5 C 4.85 g/m*3 10.5 C 0 km/h
318 13-05-2010 15:29:02 10 C 4.79 g/m*3 10 C 0 km/h
319 13-05-2010 15:41:02 9.8 C 5.1 g/m*3 9.8 C 0 km/h
320 13-05-2010 15:53:02 9.2 C 5.36 g/m*3 9.2 C 0 km/h
321 13-05-2010 16:05:01 8.7 C 5.53 g/m*3 8.7 C 0 km/h
322 13-05-2010 16:17:02 8.5 C 5.81 g/m*3 8.5 C 0 km/h
323 13-05-2010 16:29:02 8.6 C 6.02 g/m*3 8.6 C 0 km/h
324 13-05-2010 16:41:01 8.6 C 6.19 g/m*3 8.6 C 0 km/h
325 13-05-2010 16:53:02 8.9 C 6.57 g/m*3 8.9 C 0 km/h
Sensor: Nr:Datum:Temp:Abs-Feuchte:Windchill:Wind:
Aussen-T/F 326 13-05-2010 17:05:01 8.4 C 6.19 g/m*3 8.4 C 0 km/h
327 13-05-2010 17:17:02 8.2 C 6.28 g/m*3 8.2 C 0 km/h
328 13-05-2010 17:29:03 8.2 C 6.36 g/m*3 8.2 C 0 km/h
329 13-05-2010 17:41:01 8.2 C 6.53 g/m*3 8.2 C 0 km/h
330 13-05-2010 17:53:02 8.1 C 6.49 g/m*3 8.1 C 0 km/h
331 13-05-2010 18:05:02 8.3 C 6.66 g/m*3 8.3 C 0 km/h
332 13-05-2010 18:17:02 9 C 7.05 g/m*3 9 C 0 km/h
333 13-05-2010 18:29:02 8.9 C 7.1 g/m*3 8.9 C 0 km/h
334 13-05-2010 18:41:02 8.7 C 7.01 g/m*3 8.7 C 0 km/h
335 13-05-2010 18:53:02 7.9 C 6.74 g/m*3 7.9 C 0 km/h
336 13-05-2010 19:05:02 7.7 C 6.81 g/m*3 7.7 C 0 km/h
337 13-05-2010 19:17:01 7.5 C 6.8 g/m*3 7.5 C 0 km/h
338 13-05-2010 19:29:01 7.3 C 6.72 g/m*3 7.3 C 0 km/h
339 13-05-2010 19:41:02 7.3 C 6.79 g/m*3 7.3 C 0 km/h
340 13-05-2010 19:53:02 7.2 C 6.75 g/m*3 7.2 C 0 km/h
341 13-05-2010 20:05:02 7.3 C 6.87 g/m*3 7.3 C 0 km/h
342 13-05-2010 20:17:02 7.4 C 6.92 g/m*3 7.4 C 0 km/h
343 13-05-2010 20:29:02 7.4 C 7 g/m*3 7.4 C 0 km/h
344 13-05-2010 20:41:02 7.5 C 7.04 g/m*3 7.5 C 0 km/h
345 13-05-2010 20:53:01 7.6 C 7.09 g/m*3 7.6 C 0 km/h
346 13-05-2010 21:05:02 7.5 C 7.12 g/m*3 7.5 C 0 km/h
347 13-05-2010 21:17:01 7.5 C 7.12 g/m*3 7.5 C 0 km/h
348 13-05-2010 21:29:01 7.4 C 7.08 g/m*3 7.4 C 0 km/h
349 13-05-2010 21:41:01 7.4 C 7.08 g/m*3 7.4 C 0 km/h
350 13-05-2010 21:53:01 7.4 C 7.16 g/m*3 7.4 C 0 km/h
Sensor: Nr:Datum:Temp:Abs-Feuchte:Windchill:Wind:
Aussen-T/F 351 13-05-2010 22:05:02 7.4 C 7.16 g/m*3 7.4 C 0 km/h
352 13-05-2010 22:17:01 7.4 C 7.16 g/m*3 7.4 C 0 km/h
353 13-05-2010 22:29:01 7.3 C 7.11 g/m*3 7.3 C 0 km/h
354 13-05-2010 22:41:02 7.2 C 7.06 g/m*3 7.2 C 0 km/h
355 13-05-2010 22:54:02 7.2 C 7.06 g/m*3 7.2 C 0 km/h
356 13-05-2010 23:06:02 7.2 C 7.06 g/m*3 7.2 C 0 km/h
357 13-05-2010 23:18:03 7.3 C 7.11 g/m*3 7.3 C 0 km/h
358 13-05-2010 23:30:03 7.3 C 7.19 g/m*3 7.3 C 0 km/h
359 13-05-2010 23:42:03 7.2 C 7.14 g/m*3 7.2 C 0 km/h
360 13-05-2010 23:54:03 7.2 C 7.14 g/m*3 7.2 C 0 km/h
361 14-05-2010 00:06:03 7 C 7.05 g/m*3 7 C 0 km/h
362 14-05-2010 00:18:03 6.9 C 7.16 g/m*3 6.9 C 0 km/h
363 14-05-2010 00:30:03 6.9 C 7.16 g/m*3 6.9 C 0 km/h
364 14-05-2010 00:42:03 7 C 7.21 g/m*3 7 C 0 km/h
365 14-05-2010 00:54:03 7 C 7.21 g/m*3 7 C 0 km/h
366 14-05-2010 01:06:03 6.9 C 7.24 g/m*3 6.9 C 0 km/h
367 14-05-2010 01:18:03 7 C 7.21 g/m*3 7 C 0 km/h
368 14-05-2010 01:30:03 7.1 C 7.25 g/m*3 7.1 C 0 km/h
369 14-05-2010 01:42:03 7.1 C 7.25 g/m*3 7.1 C 0 km/h
370 14-05-2010 01:54:03 7.1 C 7.25 g/m*3 7.1 C 0 km/h
371 14-05-2010 02:06:03 7.1 C 7.25 g/m*3 7.1 C 0 km/h
372 14-05-2010 02:18:03 7 C 7.21 g/m*3 7 C 0 km/h
373 14-05-2010 02:30:03 6.9 C 7.24 g/m*3 6.9 C 0 km/h
374 14-05-2010 02:42:03 7 C 7.21 g/m*3 7 C 0 km/h
375 14-05-2010 02:54:03 7 C 7.28 g/m*3 7 C 0 km/h
Sensor: Nr:Datum:Temp:Abs-Feuchte:Windchill:Wind:
Aussen-T/F 376 14-05-2010 03:06:03 7 C 7.28 g/m*3 7 C 0 km/h
377 14-05-2010 03:18:03 6.9 C 7.24 g/m*3 6.9 C 0 km/h
378 14-05-2010 03:30:04 7 C 7.28 g/m*3 7 C 0 km/h
379 14-05-2010 03:42:04 7 C 7.28 g/m*3 7 C 0 km/h
380 14-05-2010 03:54:04 7 C 7.28 g/m*3 7 C 0 km/h
381 14-05-2010 04:06:04 7 C 7.28 g/m*3 7 C 0 km/h
382 14-05-2010 04:18:04 7 C 7.28 g/m*3 7 C 0 km/h
383 14-05-2010 04:30:04 6.9 C 7.24 g/m*3 6.9 C 0 km/h
384 14-05-2010 04:42:04 6.9 C 7.24 g/m*3 6.9 C 0 km/h
385 14-05-2010 04:54:04 6.9 C 7.24 g/m*3 6.9 C 0 km/h
386 14-05-2010 05:06:04 6.8 C 7.19 g/m*3 6.8 C 0 km/h
387 14-05-2010 05:18:04 6.9 C 7.24 g/m*3 6.9 C 0 km/h
388 14-05-2010 05:30:04 6.8 C 7.27 g/m*3 6.8 C 0 km/h
389 14-05-2010 05:42:04 6.9 C 7.31 g/m*3 6.9 C 0 km/h
390 14-05-2010 05:54:04 7 C 7.28 g/m*3 7 C 0 km/h
391 14-05-2010 06:06:04 7.1 C 7.33 g/m*3 7.1 C 0 km/h
392 14-05-2010 06:18:04 7.1 C 7.33 g/m*3 7.1 C 0 km/h
393 14-05-2010 06:30:04 7 C 7.28 g/m*3 7 C 0 km/h
394 14-05-2010 06:42:04 7.1 C 7.33 g/m*3 7.1 C 0 km/h
395 14-05-2010 06:54:04 7.2 C 7.38 g/m*3 7.2 C 0 km/h
396 14-05-2010 07:06:02 7.2 C 7.3 g/m*3 7.2 C 0 km/h
397 14-05-2010 07:18:02 7.3 C 7.35 g/m*3 7.3 C 0 km/h
398 14-05-2010 07:30:02 7.5 C 7.44 g/m*3 7.5 C 0 km/h
399 14-05-2010 07:42:02 7.5 C 7.44 g/m*3 7.5 C 0 km/h
400 14-05-2010 07:54:01 7.5 C 7.36 g/m*3 7.5 C 0 km/h
Sensor: Nr:Datum:Temp:Abs-Feuchte:Windchill:Wind:
Aussen-T/F 401 14-05-2010 08:06:02 7.7 C 7.38 g/m*3 7.7 C 0 km/h
402 14-05-2010 08:18:01 7.9 C 7.47 g/m*3 7.9 C 0 km/h
403 14-05-2010 08:30:01 8.1 C 7.41 g/m*3 8.1 C 0 km/h
404 14-05-2010 08:42:02 7.9 C 7.31 g/m*3 7.9 C 0 km/h
405 14-05-2010 08:54:02 8 C 7.19 g/m*3 8 C 0 km/h
406 14-05-2010 09:06:02 8 C 7.19 g/m*3 8 C 0 km/h
407 14-05-2010 09:18:01 7.9 C 7.15 g/m*3 7.9 C 0 km/h
408 14-05-2010 09:30:01 8 C 7.03 g/m*3 8 C 0 km/h
409 14-05-2010 09:42:02 8.6 C 7.39 g/m*3 8.6 C 0 km/h
410 14-05-2010 09:54:02 8.4 C 7.13 g/m*3 8.4 C 0 km/h
411 14-05-2010 10:06:02 8.7 C 7.18 g/m*3 8.7 C 0 km/h
412 14-05-2010 10:18:02 9.4 C 7.33 g/m*3 9.4 C 0 km/h
413 14-05-2010 10:30:02 9.5 C 7.01 g/m*3 9.5 C 0 km/h
414 14-05-2010 10:42:02 10 C 7.24 g/m*3 10 C 0 km/h
415 14-05-2010 10:54:01 10.3 C 7.18 g/m*3 10.3 C 0 km/h
416 14-05-2010 11:06:02 11 C 7.31 g/m*3 11 C 0 km/h
417 14-05-2010 11:18:02 10.5 C 6.6 g/m*3 10.5 C 0 km/h
418 14-05-2010 11:30:02 10.1 C 6.34 g/m*3 10.1 C 0 km/h
419 14-05-2010 11:42:02 10.4 C 6.75 g/m*3 10.4 C 0 km/h
420 14-05-2010 11:54:02 9.9 C 6.82 g/m*3 9.9 C 0 km/h
421 14-05-2010 12:06:01 9.1 C 6.39 g/m*3 9.1 C 0 km/h
422 14-05-2010 12:18:02 9 C 6.44 g/m*3 9 C 0 km/h
423 14-05-2010 12:30:02 9.3 C 7.1 g/m*3 9.3 C 0 km/h
424 14-05-2010 12:42:01 9.3 C 7.28 g/m*3 9.3 C 0 km/h
425 14-05-2010 12:54:02 9.1 C 7.28 g/m*3 9.1 C 0 km/h
Sensor: Nr:Datum:Temp:Abs-Feuchte:Windchill:Wind:
Aussen-T/F 426 14-05-2010 13:06:01 9.3 C 7.46 g/m*3 9.3 C 0 km/h
427 14-05-2010 13:18:01 9.5 C 7.65 g/m*3 9.5 C 0 km/h
428 14-05-2010 13:30:01 9.6 C 7.69 g/m*3 9.6 C 0 km/h
429 14-05-2010 13:42:02 9.7 C 7.74 g/m*3 9.7 C 0 km/h
430 14-05-2010 13:54:02 9.2 C 7.41 g/m*3 9.2 C 0 km/h
431 14-05-2010 14:06:01 9 C 7.41 g/m*3 9 C 0 km/h
432 14-05-2010 14:18:02 9.2 C 7.59 g/m*3 9.2 C 0 km/h
433 14-05-2010 14:30:02 9.5 C 7.74 g/m*3 9.5 C 0 km/h
434 14-05-2010 14:42:02 9.7 C 7.84 g/m*3 9.7 C 0 km/h
435 14-05-2010 14:54:02 10.5 C 8.15 g/m*3 10.5 C 0 km/h
436 14-05-2010 15:06:02 11.2 C 8.21 g/m*3 11.2 C 0 km/h
437 14-05-2010 15:18:01 11.7 C 7.95 g/m*3 11.7 C 0 km/h
438 14-05-2010 15:30:01 12 C 7.67 g/m*3 12 C 0 km/h
439 14-05-2010 15:42:02 12.2 C 7.23 g/m*3 12.2 C 0 km/h
440 14-05-2010 15:54:02 12.2 C 6.91 g/m*3 12.2 C 0 km/h
441 14-05-2010 16:06:02 12.6 C 6.97 g/m*3 12.6 C 0 km/h
442 14-05-2010 16:18:01 12.8 C 7.06 g/m*3 12.8 C 0 km/h
443 14-05-2010 16:30:01 13.3 C 6.93 g/m*3 13.3 C 0 km/h
444 14-05-2010 16:42:02 13.4 C 6.63 g/m*3 13.4 C 0 km/h
445 14-05-2010 16:54:02 12.8 C 6.27 g/m*3 12.8 C 0 km/h
446 14-05-2010 17:06:02 12.2 C 6.37 g/m*3 12.2 C 0 km/h
447 14-05-2010 17:18:02 11.9 C 6.25 g/m*3 11.9 C 0 km/h
448 14-05-2010 17:30:02 11.4 C 6.77 g/m*3 11.4 C 0 km/h
449 14-05-2010 17:42:02 11 C 6.81 g/m*3 11 C 0 km/h
450 14-05-2010 17:54:02 11.2 C 6.79 g/m*3 11.2 C 0 km/h
Sensor: Nr:Datum:Temp:Abs-Feuchte:Windchill:Wind:
Aussen-T/F 451 14-05-2010 18:06:02 11.5 C 6.71 g/m*3 11.5 C 0 km/h
452 14-05-2010 18:18:03 11.8 C 6.74 g/m*3 11.8 C 0 km/h
453 14-05-2010 18:30:03 12 C 6.82 g/m*3 12 C 0 km/h
454 14-05-2010 18:42:02 11.5 C 6.71 g/m*3 11.5 C 0 km/h
455 14-05-2010 18:54:02 11 C 6.81 g/m*3 11 C 0 km/h
456 14-05-2010 19:06:02 10.5 C 6.89 g/m*3 10.5 C 0 km/h
457 14-05-2010 19:18:03 10.3 C 6.99 g/m*3 10.3 C 0 km/h
458 14-05-2010 19:30:03 10.4 C 7.13 g/m*3 10.4 C 0 km/h
459 14-05-2010 19:42:02 10.5 C 6.98 g/m*3 10.5 C 0 km/h
460 14-05-2010 19:54:02 10.6 C 7.03 g/m*3 10.6 C 0 km/h
461 14-05-2010 20:06:02 10.5 C 7.08 g/m*3 10.5 C 0 km/h
462 14-05-2010 20:18:02 10.2 C 6.95 g/m*3 10.2 C 0 km/h
463 14-05-2010 20:30:02 9.9 C 6.91 g/m*3 9.9 C 0 km/h
464 14-05-2010 20:42:02 9.6 C 6.78 g/m*3 9.6 C 0 km/h
465 14-05-2010 20:54:02 9.5 C 6.92 g/m*3 9.5 C 0 km/h
466 14-05-2010 21:06:02 9.3 C 6.83 g/m*3 9.3 C 0 km/h
467 14-05-2010 21:18:02 9.2 C 6.88 g/m*3 9.2 C 0 km/h
468 14-05-2010 21:30:02 9.1 C 6.83 g/m*3 9.1 C 0 km/h
469 14-05-2010 21:42:02 9.1 C 6.92 g/m*3 9.1 C 0 km/h
470 14-05-2010 21:54:02 9 C 6.88 g/m*3 9 C 0 km/h
471 14-05-2010 22:06:02 9.1 C 7.01 g/m*3 9.1 C 0 km/h
472 14-05-2010 22:18:02 9.1 C 7.01 g/m*3 9.1 C 0 km/h
473 14-05-2010 22:30:02 9.1 C 7.1 g/m*3 9.1 C 0 km/h
474 14-05-2010 22:42:02 9.1 C 7.1 g/m*3 9.1 C 0 km/h
475 14-05-2010 22:55:03 9 C 7.14 g/m*3 9 C 0 km/h
Sensor: Nr:Datum:Temp:Abs-Feuchte:Windchill:Wind:
Aussen-T/F 476 14-05-2010 23:07:03 8.6 C 7.13 g/m*3 8.6 C 0 km/h
477 14-05-2010 23:19:03 8.2 C 7.12 g/m*3 8.2 C 0 km/h
478 14-05-2010 23:31:03 8.2 C 7.2 g/m*3 8.2 C 0 km/h
479 14-05-2010 23:43:03 8.1 C 7.16 g/m*3 8.1 C 0 km/h
480 14-05-2010 23:55:03 8.1 C 7.24 g/m*3 8.1 C 0 km/h
481 15-05-2010 00:07:03 8 C 7.19 g/m*3 8 C 0 km/h
482 15-05-2010 00:19:03 8 C 7.19 g/m*3 8 C 0 km/h
483 15-05-2010 00:31:04 7.9 C 7.23 g/m*3 7.9 C 0 km/h
484 15-05-2010 00:43:04 7.8 C 7.18 g/m*3 7.8 C 0 km/h
485 15-05-2010 00:55:04 7.8 C 7.18 g/m*3 7.8 C 0 km/h
486 15-05-2010 01:07:04 7.9 C 7.23 g/m*3 7.9 C 0 km/h
487 15-05-2010 01:19:04 7.8 C 7.18 g/m*3 7.8 C 0 km/h
488 15-05-2010 01:31:04 7.6 C 7.09 g/m*3 7.6 C 0 km/h
489 15-05-2010 01:43:04 7.6 C 7.09 g/m*3 7.6 C 0 km/h
490 15-05-2010 01:55:04 7.6 C 7.09 g/m*3 7.6 C 0 km/h
491 15-05-2010 02:07:04 7.5 C 7.04 g/m*3 7.5 C 0 km/h
492 15-05-2010 02:19:04 7.5 C 7.12 g/m*3 7.5 C 0 km/h
493 15-05-2010 02:31:04 7.6 C 7.17 g/m*3 7.6 C 0 km/h
494 15-05-2010 02:43:04 7.8 C 7.26 g/m*3 7.8 C 0 km/h
495 15-05-2010 02:55:04 7.8 C 7.26 g/m*3 7.8 C 0 km/h
496 15-05-2010 03:07:04 7.6 C 7.17 g/m*3 7.6 C 0 km/h
497 15-05-2010 03:19:04 7.6 C 7.17 g/m*3 7.6 C 0 km/h
498 15-05-2010 03:31:04 7.6 C 7.25 g/m*3 7.6 C 0 km/h
499 15-05-2010 03:43:04 7.6 C 7.25 g/m*3 7.6 C 0 km/h
500 15-05-2010 03:55:04 7.6 C 7.25 g/m*3 7.6 C 0 km/h
Sensor: Nr:Datum:Temp:Abs-Feuchte:Windchill:Wind:
Aussen-T/F 501 15-05-2010 04:07:04 7.6 C 7.25 g/m*3 7.6 C 0 km/h
502 15-05-2010 04:19:04 7.7 C 7.3 g/m*3 7.7 C 0 km/h
503 15-05-2010 04:31:04 7.6 C 7.25 g/m*3 7.6 C 0 km/h
504 15-05-2010 04:43:05 7.6 C 7.25 g/m*3 7.6 C 0 km/h
505 15-05-2010 04:55:05 7.5 C 7.2 g/m*3 7.5 C 0 km/h
506 15-05-2010 05:07:05 7.4 C 7.24 g/m*3 7.4 C 0 km/h
507 15-05-2010 05:19:05 7.3 C 7.19 g/m*3 7.3 C 0 km/h
508 15-05-2010 05:31:05 7.3 C 7.19 g/m*3 7.3 C 0 km/h
509 15-05-2010 05:43:05 7.2 C 7.14 g/m*3 7.2 C 0 km/h
510 15-05-2010 05:55:05 7.1 C 7.1 g/m*3 7.1 C 0 km/h
511 15-05-2010 06:07:05 7.1 C 7.1 g/m*3 7.1 C 0 km/h
512 15-05-2010 06:19:05 7.1 C 7.1 g/m*3 7.1 C 0 km/h
513 15-05-2010 06:31:05 7.1 C 7.18 g/m*3 7.1 C 0 km/h
514 15-05-2010 06:43:05 7.1 C 7.18 g/m*3 7.1 C 0 km/h
515 15-05-2010 06:55:05 7.1 C 7.18 g/m*3 7.1 C 0 km/h
516 15-05-2010 07:07:05 7.1 C 7.18 g/m*3 7.1 C 0 km/h
517 15-05-2010 07:19:05 7.4 C 7.32 g/m*3 7.4 C 0 km/h
518 15-05-2010 07:31:05 7.5 C 7.36 g/m*3 7.5 C 0 km/h
519 15-05-2010 07:43:05 7.8 C 7.51 g/m*3 7.8 C 0 km/h
520 15-05-2010 07:55:02 8.2 C 7.62 g/m*3 8.2 C 0 km/h
521 15-05-2010 08:07:02 8.3 C 7.59 g/m*3 8.3 C 0 km/h
522 15-05-2010 08:19:02 8.2 C 7.29 g/m*3 8.2 C 0 km/h
523 15-05-2010 08:31:03 8.6 C 7.39 g/m*3 8.6 C 0 km/h
524 15-05-2010 08:43:03 8.5 C 7 g/m*3 8.5 C 0 km/h
525 15-05-2010 08:55:02 8.8 C 7.05 g/m*3 8.8 C 0 km/h
Sensor: Nr:Datum:Temp:Abs-Feuchte:Windchill:Wind:
Aussen-T/F 526 15-05-2010 09:07:02 9 C 6.88 g/m*3 9 C 0 km/h
527 15-05-2010 09:19:02 9.3 C 6.92 g/m*3 9.3 C 0 km/h
528 15-05-2010 09:31:02 9.5 C 6.83 g/m*3 9.5 C 0 km/h
529 15-05-2010 09:43:02 9.6 C 6.78 g/m*3 9.6 C 0 km/h
530 15-05-2010 09:55:01 10 C 6.67 g/m*3 10 C 0 km/h
531 15-05-2010 10:07:02 10.5 C 6.6 g/m*3 10.5 C 0 km/h
532 15-05-2010 10:19:01 10.7 C 6.48 g/m*3 10.7 C 0 km/h
533 15-05-2010 10:31:02 10.6 C 6.34 g/m*3 10.6 C 0 km/h
534 15-05-2010 10:43:02 11.1 C 6.35 g/m*3 11.1 C 0 km/h
535 15-05-2010 10:55:02 11.1 C 6.35 g/m*3 11.1 C 0 km/h
536 15-05-2010 11:07:02 10.9 C 6.27 g/m*3 10.9 C 0 km/h
537 15-05-2010 11:19:01 10.8 C 6.23 g/m*3 10.8 C 0 km/h
538 15-05-2010 11:31:02 10.9 C 6.17 g/m*3 10.9 C 0 km/h
539 15-05-2010 11:43:02 11.5 C 5.89 g/m*3 11.5 C 0 km/h
540 15-05-2010 11:55:02 11.9 C 6.04 g/m*3 11.9 C 0 km/h
541 15-05-2010 12:07:02 11.2 C 5.68 g/m*3 11.2 C 0 km/h
542 15-05-2010 12:19:02 11.1 C 5.64 g/m*3 11.1 C 0 km/h
543 15-05-2010 12:31:02 11.2 C 5.57 g/m*3 11.2 C 0 km/h
544 15-05-2010 12:43:02 12.4 C 5.46 g/m*3 12.4 C 0 km/h
545 15-05-2010 12:55:02 12.3 C 4.78 g/m*3 12.3 C 0 km/h
546 15-05-2010 13:07:02 13.9 C 5.04 g/m*3 13.9 C 0 km/h
547 15-05-2010 13:19:03 12 C 4.58 g/m*3 12 C 0 km/h
548 15-05-2010 13:31:02 11.1 C 5.14 g/m*3 11.1 C 0 km/h
549 15-05-2010 13:43:02 11.2 C 4.87 g/m*3 11.2 C 0 km/h
550 15-05-2010 13:55:02 12.1 C 4.5 g/m*3 12.1 C 0 km/h
Sensor: Nr:Datum:Temp:Abs-Feuchte:Windchill:Wind:
Aussen-T/F 551 15-05-2010 14:07:02 13.7 C 4.5 g/m*3 13.7 C 0 km/h
552 15-05-2010 14:19:02 15 C 4.62 g/m*3 15 C 0 km/h
553 15-05-2010 14:31:02 14.7 C 4.15 g/m*3 14.7 C 0 km/h
554 15-05-2010 14:43:02 14 C 3.98 g/m*3 14 C 0 km/h
555 15-05-2010 14:55:01 13.9 C 3.72 g/m*3 13.9 C 0 km/h
556 15-05-2010 15:07:01 14.3 C 3.56 g/m*3 14.3 C 0 km/h
557 15-05-2010 15:19:01 15.2 C 3.24 g/m*3 15.2 C 0 km/h
558 15-05-2010 15:31:01 15.8 C 2.69 g/m*3 15.8 C 0 km/h
559 15-05-2010 15:43:01 16 C 2.72 g/m*3 16 C 0 km/h
560 15-05-2010 15:55:01 16.2 C 2.76 g/m*3 16.2 C 0 km/h
561 15-05-2010 16:07:02 16.2 C 2.76 g/m*3 16.2 C 0 km/h
562 15-05-2010 16:19:01 15.1 C 2.58 g/m*3 15.1 C 0 km/h
563 15-05-2010 16:31:01 14.4 C 2.47 g/m*3 14.4 C 0 km/h
564 15-05-2010 16:43:01 14.4 C 2.97 g/m*3 14.4 C 0 km/h
565 15-05-2010 16:55:01 13.8 C 2.98 g/m*3 13.8 C 0 km/h
566 15-05-2010 17:07:02 13.9 C 3.12 g/m*3 13.9 C 0 km/h
567 15-05-2010 17:19:01 14 C 3.02 g/m*3 14 C 0 km/h
568 15-05-2010 17:31:02 14.1 C 3.16 g/m*3 14.1 C 0 km/h
569 15-05-2010 17:43:02 14 C 3.26 g/m*3 14 C 0 km/h
570 15-05-2010 17:55:02 14 C 3.26 g/m*3 14 C 0 km/h
571 15-05-2010 18:07:02 13.7 C 3.43 g/m*3 13.7 C 0 km/h
572 15-05-2010 18:19:01 14 C 3.62 g/m*3 14 C 0 km/h
573 15-05-2010 18:31:02 13.8 C 3.46 g/m*3 13.8 C 0 km/h
574 15-05-2010 18:43:02 13.7 C 3.43 g/m*3 13.7 C 0 km/h
575 15-05-2010 18:55:02 13.9 C 3.36 g/m*3 13.9 C 0 km/h
Sensor: Nr:Datum:Temp:Abs-Feuchte:Windchill:Wind:
Aussen-T/F 576 15-05-2010 19:07:02 13.9 C 3.24 g/m*3 13.9 C 0 km/h
577 15-05-2010 19:19:02 14.6 C 3.5 g/m*3 14.6 C 0 km/h
578 15-05-2010 19:31:02 15.1 C 3.23 g/m*3 15.1 C 0 km/h
579 15-05-2010 19:43:02 14.9 C 3.44 g/m*3 14.9 C 0 km/h
580 15-05-2010 19:55:02 14.4 C 3.58 g/m*3 14.4 C 0 km/h
581 15-05-2010 20:07:02 13.9 C 4.2 g/m*3 13.9 C 0 km/h
582 15-05-2010 20:19:02 13.3 C 4.62 g/m*3 13.3 C 0 km/h
583 15-05-2010 20:31:02 12.4 C 4.48 g/m*3 12.4 C 0 km/h
584 15-05-2010 20:43:02 11.6 C 4.47 g/m*3 11.6 C 0 km/h
585 15-05-2010 20:55:02 11.3 C 4.59 g/m*3 11.3 C 0 km/h
586 15-05-2010 21:07:02 11.4 C 4.62 g/m*3 11.4 C 0 km/h
587 15-05-2010 21:19:02 11.1 C 4.53 g/m*3 11.1 C 0 km/h
588 15-05-2010 21:31:02 10.8 C 4.55 g/m*3 10.8 C 0 km/h
589 15-05-2010 21:43:02 10.8 C 4.84 g/m*3 10.8 C 0 km/h
590 15-05-2010 21:55:01 10.8 C 4.84 g/m*3 10.8 C 0 km/h
591 15-05-2010 22:07:02 10.8 C 4.94 g/m*3 10.8 C 0 km/h
592 15-05-2010 22:19:02 11 C 5 g/m*3 11 C 0 km/h
593 15-05-2010 22:32:02 11.1 C 4.83 g/m*3 11.1 C 0 km/h
594 15-05-2010 22:44:03 11.2 C 4.66 g/m*3 11.2 C 0 km/h
595 15-05-2010 22:56:03 11.2 C 4.66 g/m*3 11.2 C 0 km/h
596 15-05-2010 23:08:03 11.1 C 4.73 g/m*3 11.1 C 0 km/h
597 15-05-2010 23:20:03 10.9 C 4.97 g/m*3 10.9 C 0 km/h
598 15-05-2010 23:32:03 10.9 C 5.07 g/m*3 10.9 C 0 km/h
599 15-05-2010 23:44:03 10.8 C 5.04 g/m*3 10.8 C 0 km/h
600 15-05-2010 23:56:03 10.5 C 5.04 g/m*3 10.5 C 0 km/h

Legende:
   Min
   Max


Maximal/Minimal-Werte vom 14.04.2020 - 16.05.2020

Sensor Min Max Avg
Temp
(Aussen-T/F)
-0.1 °C
15-04-2020  06:55:00
26.2 °C
17-04-2020  18:05:00
11.98 °C

Die Daten stammen von einer Davis Vantage Pro 2 Wetter-Station und werden unter Linux mit der Software wview2wettercgi und aufbereitet. Alle Angaben erfolgen ohne Gewähr für ihre Vollständigkeit oder Richtigkeit.
Kontakt: Rainer Krienke krienke@uni-koblenz.de . Meine Webseiten an der Uni Koblenz oder privat.
Version: $Revision: 0.78 $